| time (UTC) | temp F | wind direction | speed knots | gust knots | rain 1hr in | rain 24hr in | rain mn in | humidity % | barometer mb |
| 20260509160051 | 67 | 147 | 0.9 | 5.2 | 0.00 | 0.00 | 0.00 | 77 | 1012.5 |
| 20260509154557 | 66 | 247 | 1.7 | 7.0 | 0.00 | 0.00 | 0.00 | 80 | 1012.4 |
| 20260509153045 | 66 | 161 | 1.7 | 3.5 | 0.00 | 0.00 | 0.00 | 81 | 1012.2 |
| 20260509151542 | 64 | 134 | 0.9 | 3.5 | 0.00 | 0.00 | 0.00 | 83 | 1012.3 |
| 20260509150045 | 64 | 134 | 0.9 | 5.2 | 0.00 | 0.00 | 0.00 | 83 | 1012.4 |
| 20260509144539 | 64 | 115 | 0.9 | 5.2 | 0.00 | 0.00 | 0.00 | 85 | 1012.4 |
| 20260509143054 | 63 | 214 | 0.0 | 7.0 | 0.00 | 0.00 | 0.00 | 86 | 1012.2 |
| 20260509141546 | 62 | 134 | 1.7 | 5.2 | 0.00 | 0.00 | 0.00 | 86 | 1012.5 |
| 20260509140043 | 61 | 159 | 0.9 | 6.1 | 0.00 | 0.00 | 0.00 | 88 | 1012.7 |
| 20260509134540 | 61 | 185 | 0.0 | 3.5 | 0.00 | 0.00 | 0.00 | 88 | 1013.0 |
| 20260509133040 | 60 | 223 | 0.9 | 1.7 | 0.00 | 0.00 | 0.00 | 89 | 1012.8 |
| 20260509131547 | 59 | 0 | 0.0 | 0.9 | 0.00 | 0.00 | 0.00 | 89 | 1013.1 |
| 20260509130053 | 58 | 127 | 0.0 | 0.9 | 0.00 | 0.00 | 0.00 | 91 | 1013.1 |
| 20260509124553 | 57 | 0 | 0.0 | 1.7 | 0.00 | 0.00 | 0.00 | 92 | 1013.4 |
| 20260509123050 | 55 | 0 | 0.0 | 1.7 | 0.00 | 0.00 | 0.00 | 92 | 1013.4 |
| 20260509121556 | 55 | 245 | 0.0 | 1.7 | 0.00 | 0.00 | 0.00 | 93 | 1013.3 |
| 20260509120049 | 54 | 219 | 0.0 | 1.7 | 0.00 | 0.00 | 0.00 | 94 | 1012.8 |
| 20260509114559 | 52 | 0 | 0.0 | 0.0 | 0.00 | 0.00 | 0.00 | 94 | 1013.0 |
| 20260509113044 | 51 | 0 | 0.0 | 0.0 | 0.00 | 0.00 | 0.00 | 94 | 1013.1 |
| 20260509111542 | 50 | 0 | 0.0 | 0.0 | 0.00 | 0.00 | 0.00 | 94 | 1013.2 |
| 20260509110041 | 49 | 0 | 0.0 | 0.0 | 0.00 | 0.00 | 0.00 | 94 | 1012.9 |
| 20260509104547 | 49 | 0 | 0.0 | 0.0 | 0.00 | 0.00 | 0.00 | 94 | 1013.1 |
| 20260509103039 | 48 | 0 | 0.0 | 0.0 | 0.00 | 0.00 | 0.00 | 93 | 1012.8 |
| 20260509101548 | 48 | 0 | 0.0 | 0.0 | 0.00 | 0.00 | 0.00 | 93 | 1012.5 |
| 20260509100046 | 48 | 0 | 0.0 | 0.0 | 0.00 | 0.00 | 0.00 | 93 | 1012.4 |
| 20260509094548 | 48 | 0 | 0.0 | 0.0 | 0.00 | 0.00 | 0.00 | 92 | 1012.3 |
| 20260509093043 | 49 | 0 | 0.0 | 0.0 | 0.00 | 0.00 | 0.00 | 92 | 1012.3 |
| 20260509091542 | 49 | 0 | 0.0 | 0.0 | 0.00 | 0.00 | 0.00 | 93 | 1012.4 |
| 20260509090056 | 49 | 0 | 0.0 | 0.0 | 0.00 | 0.00 | 0.00 | 92 | 1012.4 |
| 20260509084547 | 49 | 0 | 0.0 | 0.0 | 0.00 | 0.00 | 0.00 | 93 | 1012.3 |
| 20260509083050 | 49 | 0 | 0.0 | 0.0 | 0.00 | 0.00 | 0.00 | 92 | 1012.4 |
| 20260509081541 | 49 | 0 | 0.0 | 0.0 | 0.00 | 0.00 | 0.00 | 92 | 1012.2 |
| 20260509080104 | 50 | 0 | 0.0 | 0.0 | 0.00 | 0.00 | 0.00 | 92 | 1012.5 |
| 20260509074544 | 50 | 0 | 0.0 | 0.0 | 0.00 | 0.00 | 0.00 | 91 | 1012.8 |
| 20260509073043 | 50 | 0 | 0.0 | 0.0 | 0.00 | 0.00 | 0.00 | 91 | 1012.9 |
| 20260509071551 | 51 | 0 | 0.0 | 0.0 | 0.00 | 0.00 | 0.00 | 91 | 1013.2 |
| 20260509070046 | 51 | 0 | 0.0 | 0.0 | 0.00 | 0.00 | 0.00 | 90 | 1013.2 |
| 20260509064548 | 51 | 0 | 0.0 | 0.0 | 0.00 | 0.00 | 0.00 | 90 | 1013.3 |
| 20260509063100 | 52 | 0 | 0.0 | 0.0 | 0.00 | 0.00 | 0.00 | 90 | 1013.5 |
| 20260509061544 | 52 | 0 | 0.0 | 0.0 | 0.00 | 0.00 | 0.00 | 89 | 1013.7 |
| 20260509060044 | 53 | 0 | 0.0 | 0.0 | 0.00 | 0.00 | 0.00 | 88 | 1013.8 |
| 20260509054553 | 53 | 0 | 0.0 | 0.0 | 0.00 | 0.00 | 0.00 | 88 | 1014.1 |
| 20260509053050 | 53 | 0 | 0.0 | 0.0 | 0.00 | 0.00 | 0.00 | 87 | 1014.4 |
| 20260509051603 | 54 | 0 | 0.0 | 0.0 | 0.00 | 0.00 | 0.00 | 86 | 1014.4 |
| 20260509050059 | 54 | 0 | 0.0 | 0.0 | 0.00 | 0.00 | 0.00 | 87 | 1014.5 |
| 20260509044542 | 54 | 0 | 0.0 | 0.0 | 0.00 | 0.00 | 0.00 | 86 | 1014.7 |
| 20260509043047 | 55 | 0 | 0.0 | 0.0 | 0.00 | 0.00 | 0.00 | 85 | 1014.9 |
| 20260509041551 | 55 | 0 | 0.0 | 0.0 | 0.00 | 0.00 | 0.00 | 85 | 1014.9 |
| 20260509040041 | 55 | 0 | 0.0 | 0.0 | 0.00 | 0.00 | 0.00 | 84 | 1014.7 |
| 20260509034558 | 56 | 0 | 0.0 | 0.0 | 0.00 | 0.00 | 0.00 | 83 | 1014.7 |
| 20260509033058 | 56 | 0 | 0.0 | 0.0 | 0.00 | 0.00 | 0.00 | 84 | 1014.7 |
| 20260509031545 | 56 | 0 | 0.0 | 0.0 | 0.00 | 0.00 | 0.00 | 83 | 1014.8 |
| 20260509030049 | 56 | 0 | 0.0 | 0.0 | 0.00 | 0.00 | 0.00 | 83 | 1014.8 |
| 20260509024557 | 57 | 0 | 0.0 | 0.0 | 0.00 | 0.00 | 0.00 | 81 | 1014.9 |
| 20260509023047 | 57 | 0 | 0.0 | 0.0 | 0.00 | 0.00 | 0.00 | 81 | 1015.3 |
| 20260509021548 | 57 | 0 | 0.0 | 0.0 | 0.00 | 0.00 | 0.00 | 80 | 1015.2 |
| 20260509020049 | 58 | 0 | 0.0 | 0.0 | 0.00 | 0.00 | 0.00 | 78 | 1015.0 |
| 20260509014550 | 58 | 0 | 0.0 | 0.0 | 0.00 | 0.00 | 0.00 | 76 | 1015.0 |
| 20260509013050 | 59 | 0 | 0.0 | 0.0 | 0.00 | 0.00 | 0.00 | 75 | 1014.9 |
| 20260509011601 | 59 | 0 | 0.0 | 0.0 | 0.00 | 0.00 | 0.00 | 71 | 1014.5 |
| 20260509010046 | 60 | 0 | 0.0 | 0.0 | 0.00 | 0.00 | 0.00 | 71 | 1014.5 |
| 20260509004555 | 61 | 0 | 0.0 | 0.0 | 0.00 | 0.00 | 0.00 | 68 | 1014.4 |
| 20260509003046 | 62 | 0 | 0.0 | 0.0 | 0.00 | 0.00 | 0.00 | 62 | 1014.4 |
| 20260509001553 | 63 | 0 | 0.0 | 0.0 | 0.00 | 0.00 | 0.00 | 62 | 1014.2 |
| 20260509000050 | 64 | 0 | 0.0 | 0.0 | 0.00 | 0.00 | 0.00 | 56 | 1014.0 |
| 20260508234547 | 66 | 0 | 0.0 | 0.0 | 0.00 | 0.00 | 0.00 | 56 | 1014.0 |
| 20260508233049 | 67 | 0 | 0.0 | 0.9 | 0.00 | 0.00 | 0.00 | 50 | 1014.1 |
| 20260508231553 | 68 | 0 | 0.0 | 0.9 | 0.00 | 0.00 | 0.00 | 47 | 1013.9 |
| 20260508230043 | 68 | 250 | 0.0 | 0.9 | 0.00 | 0.00 | 0.00 | 46 | 1014.1 |
| 20260508224601 | 69 | 137 | 0.9 | 2.6 | 0.00 | 0.00 | 0.00 | 44 | 1014.0 |
| 20260508223048 | 70 | 253 | 0.0 | 1.7 | 0.00 | 0.00 | 0.00 | 40 | 1014.1 |
| 20260508221556 | 71 | 0 | 0.0 | 2.6 | 0.00 | 0.00 | 0.00 | 39 | 1014.1 |
| 20260508220049 | 73 | 0 | 0.0 | 1.7 | 0.00 | 0.00 | 0.00 | 37 | 1013.9 |
| 20260508214549 | 72 | 0 | 0.9 | 2.6 | 0.00 | 0.00 | 0.00 | 37 | 1013.8 |
| 20260508213049 | 71 | 0 | 0.9 | 1.7 | 0.00 | 0.00 | 0.00 | 39 | 1013.8 |
| 20260508211553 | 71 | 0 | 0.0 | 1.7 | 0.00 | 0.00 | 0.00 | 39 | 1014.1 |
| 20260508210049 | 71 | 203 | 0.9 | 3.5 | 0.00 | 0.00 | 0.00 | 37 | 1014.3 |
| 20260508204547 | 71 | 200 | 0.0 | 2.6 | 0.00 | 0.00 | 0.00 | 34 | 1014.2 |
| 20260508203048 | 72 | 215 | 0.0 | 5.2 | 0.00 | 0.00 | 0.00 | 35 | 1014.3 |
| 20260508201544 | 71 | 265 | 1.7 | 4.3 | 0.00 | 0.00 | 0.00 | 32 | 1014.5 |
| 20260508200105 | 71 | 60 | 1.7 | 6.1 | 0.00 | 0.00 | 0.00 | 35 | 1014.6 |
| 20260508194548 | 71 | 230 | 2.6 | 7.0 | 0.00 | 0.00 | 0.00 | 32 | 1015.1 |
| 20260508193058 | 72 | 232 | 0.9 | 3.5 | 0.00 | 0.00 | 0.00 | 33 | 1015.3 |
| 20260508191547 | 72 | 267 | 1.7 | 7.0 | 0.00 | 0.00 | 0.00 | 33 | 1015.4 |
| 20260508190043 | 71 | 0 | 2.6 | 5.2 | 0.00 | 0.00 | 0.00 | 32 | 1015.5 |
| 20260508184549 | 71 | 204 | 1.7 | 4.3 | 0.00 | 0.00 | 0.00 | 33 | 1016.0 |
| 20260508183106 | 70 | 0 | 0.0 | 6.1 | 0.00 | 0.00 | 0.00 | 33 | 1016.0 |
| 20260508181608 | 71 | 36 | 1.7 | 4.3 | 0.00 | 0.00 | 0.00 | 32 | 1016.1 |
| 20260508180049 | 70 | 94 | 1.7 | 5.2 | 0.00 | 0.00 | 0.00 | 36 | 1016.3 |
| 20260508174547 | 70 | 254 | 0.9 | 3.5 | 0.00 | 0.00 | 0.00 | 31 | 1016.6 |
| 20260508173047 | 71 | 322 | 0.0 | 1.7 | 0.00 | 0.00 | 0.00 | 38 | 1016.6 |
| 20260508171549 | 69 | 0 | 0.9 | 2.6 | 0.00 | 0.00 | 0.00 | 33 | 1017.0 |
| 20260508170043 | 68 | 209 | 1.7 | 5.2 | 0.00 | 0.00 | 0.00 | 35 | 1017.3 |
| 20260508164541 | 69 | 0 | 0.0 | 1.7 | 0.00 | 0.00 | 0.00 | 37 | 1017.5 |
| 20260508163048 | 69 | 351 | 0.9 | 4.3 | 0.00 | 0.00 | 0.00 | 36 | 1017.6 |
| 20260508161544 | 68 | 0 | 0.0 | 4.3 | 0.00 | 0.00 | 0.00 | 40 | 1017.8 |